sat.trackr.live / text

‹ back to catalog

YAOGAN-20 01C

NORAD 40111 · 2014-047C

PAYLOAD ACTIVE UNKNOWN

§ Identity

Operator
Country
PRC
Launch date
2014-08-09
Launch site
JSC
Launch vehicle
Mass (kg)
RCS (m²)
2.44

External: N2YO · Heavens-Above · Gunter

§ Orbital elements

Epoch: 2026-05-25T03:55:53.513184Z

Period
107.03 min
Inclination
63.3781°
Eccentricity
0.0388141
Mean motion
13.45447964 rev/d
Perigee alt
799.2 km
Apogee alt
1,378.9 km
Semi-major
7,467.2 km
B*
1.2031e-4
RAAN
79.0681°
Arg perigee
14.9571°
Mean anomaly
346.2558°
Rev number
57,919

§ Raw data

YAOGAN-20 01C1 40111U 14047C   26145.16381381  .00000022  00000+0  12031-3 0  99952 40111  63.3781  79.0681 0388141  14.9571 346.2558 13.45447964579191

JSON: /api/v1/satellites/40111 · /tle

For live sub-satellite position, see the globe view (requires WebGL).

§ Visibility from observer

Set your observer location to see the next 7 days of passes ≥ 10°. The values pass through the URL so the page stays shareable.

No JS? Fill the form by hand. The geolocation button needs JavaScript.